Main page
METAR-TAF:

METAR-TAF

Airports :

Paulo Afonso Airport

Paulo Afonso, Bahia, Brazil

latitude: 09-24S, longitude: 038-13W, elevation: 253 m

Current weather observation

The report was made 5 hours and 29 minutes ago, at 19:00 UTC
Wind 6 kt from the East/Southeast
Temperature 37°C
Humidity 27%
Pressure 1008 hPa
Visibility 10 km or more
Few clouds at a height of 2400 ft

METAR: SBUF 181900Z 12006KT 9999 FEW024 37/15 Q1008

Time: 21:29 (00:29 UTC)


TAF: missing

Weather observations and forecasts of more than 4000 airports (METAR and TAF reports).

The available stations are represented by yellow and red dots on the map.

Hover mouse over dot to see the name of the station.

Then click to see weather observations and forecasts.

To change the map : click on the green buttons with a black cross to zoom in, on the green button with a dash to zoom out, or on the green arrows for adjacent maps.


METAR-TAF: